Content
SEND FEEDBACK

Daily
Averages
Monthly
Summary
United States of America

BROOKLYN, NEW YORK


Home > North America > United States > New York
Elevation: 2 feet     Latitude: 40 36N     Longitude: 073 59W

WEATHER
 
SELECT A DAY
Number of Records: 188,190;   Date Range: 1/1/95 - 10/23/14
 
SHARE

PRINT THIS DATA

[ ← Previous Day ]
WEATHER ALMANAC - JANUARY 17, 2013
[ Next Day → ]
[ °C ]   °F
Weather ElementAverageHighLow
Temperature40.5 °F44.1 °F (1:51 pm)36 °F (11:51 pm)
Dewpoint26.1 °F33.1 °F (3:51 am)21.9 °F (6:51 pm)
Humidity57.3 %79 % (3:51 am)47 % (1:51 pm)
Barometer30.04 in30.11 in (7:51 pm)29.93 in (1:51 am)
Wind Speed11.7 mph18.4 mph (11:51 am)
Wind Gust23 mph (10:51 am)
Weather ElementAverage
Visibility10 mi
Wind DirectionW (270.4 °)

Weather ElementTotal
Precipitation---
Heating Degree Days25 (Base 65)
Averaged from 23 records on January 17, 2013
WEATHER CONDITIONS BREAKOUT
WIND DIRECTION BREAKOUT
WEATHER BY HOUR - JANUARY 17, 2013
[ °C ]   °F
Local TimeTemperatureDewpointHumidityBarometerVisibilityWind DirectionWind SpeedGust SpeedPrecipitationEventsConditions
1:51 AM39.0 °F32.0 °F76 %29.93 in10.0 miWest (270°)10.4 mphOvercast
2:51 AM39.0 °F32.0 °F76 %29.97 in10.0 miWSW (240°)12.7 mphOvercast
3:51 AM39.0 °F33.1 °F79 %29.95 in10.0 miWSW (240°)11.5 mphOvercast
4:51 AM39.0 °F30.9 °F73 %29.94 in10.0 miWest (260°)9.2 mphOvercast
5:51 AM39.9 °F28.9 °F65 %29.97 in10.0 miWNW (290°)16.1 mphOvercast
6:51 AM39.0 °F27.0 °F62 %30.00 in10.0 miWNW (290°)13.8 mphMostly Cloudy
7:51 AM39.9 °F27.0 °F60 %30.03 in10.0 miWNW (290°)9.2 mphMostly Cloudy
8:51 AM41.0 °F26.1 °F55 %30.06 in10.0 miNW (310°)12.7 mphMostly Cloudy
9:51 AM41.0 °F25.0 °F53 %30.07 in10.0 miNW (320°)15.0 mph20.7 mphMostly Cloudy
10:51 AM42.1 °F25.0 °F51 %30.07 in10.0 miNW (320°)13.8 mph23.0 mphMostly Cloudy
11:51 AM43.0 °F26.1 °F51 %30.06 in10.0 miNW (320°)18.4 mphMostly Cloudy
12:51 PM43.0 °F25.0 °F49 %30.05 in10.0 miNW (320°)17.3 mphMostly Cloudy
1:51 PM44.1 °F25.0 °F47 %30.05 in10.0 miNW (320°)13.8 mphMostly Cloudy
2:51 PM43.0 °F25.0 °F49 %30.05 in10.0 miNW (320°)8.1 mphMostly Cloudy
3:51 PM42.1 °F24.1 °F49 %30.06 in10.0 miNNW (330°)12.7 mphOvercast
4:51 PM42.1 °F24.1 °F49 %30.07 in10.0 miNorth (10°)9.2 mphOvercast
5:51 PM41.0 °F24.1 °F51 %30.09 in10.0 miNorth (350°)6.9 mphOvercast
6:51 PM41.0 °F21.9 °F47 %30.10 in10.0 miNNW (340°)8.1 mphOvercast
7:51 PM41.0 °F24.1 °F51 %30.11 in10.0 miNNW (330°)9.2 mphOvercast
8:51 PM39.9 °F24.1 °F53 %30.05 in10.0 miNorth (360°)10.4 mphOvercast
9:51 PM39.0 °F24.1 °F55 %30.06 in10.0 miNorth (350°)12.7 mphOvercast
10:51 PM37.0 °F24.1 °F59 %30.03 in10.0 miNNE (30°)10.4 mphOvercast
11:51 PM36.0 °F21.9 °F57 %30.05 in10.0 miNorth (10°)8.1 mphOvercast
Hourly data recorded from KJFK, located miles away from Brooklyn, New York







STORIES FROM OUR PARTNERS